カタログに戻る

ONEWEB-0080

運用中通信PO
NORAD 45426·PAYLOAD·🇬🇧 United Kingdom

打ち上げ Mar 21, 2020 から Baikonur Cosmodrome

Loading…

次のパス (今後24時間)

TLE

最新Source: CelesTrak SupGP

元期: Sep 14, 2026, 20:29 UTC

1 45426C 20020C   26257.85396250 -.00000152  00000+0 -42920-3 0  2571
2 45426  87.8977   3.2487 0001618  94.0140   5.7454 13.11413924    12

AllMySatでONEWEB-0080をリアルタイム追跡

Download on the App Store